This is the latest recevied weather packets stored in our database for station/object KJ4AJP. If no packets are shown the sender has not sent any weather packets the latest 10 day(s).
| Time | Temp. | Humidity | Pressure | Rain* | Wind** | Luminosity | Snow |
|---|---|---|---|---|---|---|---|
| 1777209594 | 20° C | 71% | 1013.3 hPa | 0 mm | - | 192 W/m² | - |
| 1777209289 | 20° C | 73% | 1013.1 hPa | 0 mm | - | 115 W/m² | - |
| 1777208987 | 19.44° C | 73% | 1013 hPa | 0 mm | - | 108 W/m² | - |
| 1777208682 | 19.44° C | 72% | 1012.9 hPa | 0 mm | - | 64 W/m² | - |
| 1777208379 | 18.89° C | 73% | 1013 hPa | 0 mm | - | 56 W/m² | - |
| 1777208077 | 18.89° C | 73% | 1013.2 hPa | 0 mm | - | 69 W/m² | - |
| 1777207772 | 18.33° C | 74% | 1012.9 hPa | 0 mm | - | 60 W/m² | - |
| 1777207467 | 18.33° C | 74% | 1012.8 hPa | 0 mm | - | 51 W/m² | - |
| 1777207166 | 17.78° C | 76% | 1012.8 hPa | 0 mm | - | 55 W/m² | - |
| 1777206862 | 17.22° C | 77% | 1012.7 hPa | 0 mm | - | 49 W/m² | - |
| 1777206558 | 16.67° C | 80% | 1012.7 hPa | 0 mm | - | 44 W/m² | - |
| 1777206254 | 16.11° C | 81% | 1012.6 hPa | 0 mm | - | 51 W/m² | - |
| 1777205953 | 16.11° C | 82% | 1012.8 hPa | 0 mm | - | 41 W/m² | - |
| 1777205650 | 15.56° C | 83% | 1012.4 hPa | 0 mm | - | 34 W/m² | - |
| 1777205348 | 15° C | 84% | 1012.4 hPa | 0 mm | - | 32 W/m² | - |
| 1777205042 | 15° C | 84% | 1012.2 hPa | 0 mm | - | 30 W/m² | - |
| 1777204738 | 15° C | 85% | 1012.3 hPa | 0 mm | - | 28 W/m² | - |
| 1777204433 | 15° C | 84% | 1012.1 hPa | 0 mm | - | 25 W/m² | - |
| 1777204130 | 15° C | 84% | 1012 hPa | 0 mm | - | 23 W/m² | - |
| 1777203826 | 15° C | 84% | 1012 hPa | 0 mm | - | 20 W/m² | - |
| 1777203526 | 15° C | 84% | 1012 hPa | 0 mm | - | 18 W/m² | - |
| 1777203221 | 15° C | 84% | 1012.2 hPa | 0 mm | - | 15 W/m² | - |
| 1777202919 | 15° C | 83% | 1012.1 hPa | 0 mm | - | 12 W/m² | - |
| 1777202618 | 14.44° C | 84% | 1011.9 hPa | 0 mm | - | 9 W/m² | - |
| 1777202313 | 14.44° C | 84% | 1012.1 hPa | 0 mm | - | 6 W/m² | - |
* Rain latest hour (hover to see other rain measurements)
** Current wind speed in m/s (hover to see current wind gust speed)